EW9605 Weather Reports


Display with metric or nautical units.
time (UTC)temp
F
wind
direction
speed
MPH
gust
MPH
rain 1hr
in
rain 24hr
in
rain mn
in
humidity
%
barometer
mb
20190522223917 90 82 7.0 9.0 0.00 0.00 0.00 43 1017.4
20190522223417 90 71 6.0 9.0 0.00 0.00 0.00 42 1017.4
20190522222918 90 95 9.0 11.0 0.00 0.00 0.00 41 1017.4
20190522222417 90 59 4.0 6.0 0.00 0.00 0.00 43 1017.4
20190522221917 90 59 6.0 6.0 0.00 0.00 0.00 41 1017.4
20190522221418 90 77 2.0 4.0 0.00 0.00 0.00 39 1017.4
20190522220917 90 90 8.0 11.0 0.00 0.00 0.00 39 1017.0
20190522220418 90 107 7.0 9.0 0.00 0.00 0.00 37 1017.4
20190522215917 90 112 6.0 6.0 0.00 0.00 0.00 39 1017.4
20190522215418 90 10 6.0 8.0 0.00 0.00 0.00 36 1017.0
20190522214917 90 67 3.0 6.0 0.00 0.00 0.00 39 1017.4
20190522214418 90 81 1.0 3.0 0.00 0.00 0.00 39 1017.4
20190522213918 90 92 6.0 9.0 0.00 0.00 0.00 38 1017.0
20190522213417 90 86 5.0 6.0 0.00 0.00 0.00 40 1017.4
20190522212917 90 65 7.0 9.0 0.00 0.00 0.00 39 1017.4
20190522212418 90 79 5.0 6.0 0.00 0.00 0.00 38 1017.0
20190522211918 90 35 0.0 2.0 0.00 0.00 0.00 43 1017.4
20190522211417 90 93 7.0 10.0 0.00 0.00 0.00 41 1017.0
20190522210918 90 89 5.0 9.0 0.00 0.00 0.00 42 1017.4
20190522210417 90 3 6.0 8.0 0.00 0.00 0.00 39 1017.7
20190522205918 90 92 4.0 4.0 0.00 0.00 0.00 40 1017.4
20190522205417 89 356 4.0 6.0 0.00 0.00 0.00 42 1017.0
20190522204818 90 56 1.0 3.0 0.00 0.00 0.00 43 1017.0
20190522204317 89 78 3.0 5.0 0.00 0.00 0.00 45 1017.4
20190522203818 89 98 7.0 10.0 0.00 0.00 0.00 43 1017.4
20190522203317 89 96 8.0 9.0 0.00 0.00 0.00 43 1017.4
20190522202818 90 89 6.0 9.0 0.00 0.00 0.00 44 1017.4
20190522202317 89 37 2.0 3.0 0.00 0.00 0.00 46 1017.4
20190522201817 90 81 4.0 4.0 0.00 0.00 0.00 47 1017.4
20190522201317 89 93 6.0 9.0 0.00 0.00 0.00 47 1017.4
20190522200817 90 102 11.0 12.0 0.00 0.00 0.00 43 1017.4
20190522200318 90 88 7.0 8.0 0.00 0.00 0.00 46 1017.4
20190522195818 90 95 9.0 10.0 0.00 0.00 0.00 45 1017.4
20190522195317 90 124 7.0 9.0 0.00 0.00 0.00 42 1017.4
20190522194817 90 101 8.0 10.0 0.00 0.00 0.00 42 1017.4
20190522194318 90 81 5.0 6.0 0.00 0.00 0.00 41 1017.7
20190522193817 90 102 9.0 12.0 0.00 0.00 0.00 42 1017.7
20190522193318 90 88 10.0 13.0 0.00 0.00 0.00 45 1017.4
20190522192817 89 91 7.0 12.0 0.00 0.00 0.00 46 1017.4
20190522192317 88 241 2.0 4.0 0.00 0.00 0.00 48 1017.7
20190522191817 90 55 0.0 2.0 0.00 0.00 0.00 54 1018.0
20190522191318 89 28 3.0 5.0 0.00 0.00 0.00 52 1018.0
20190522190817 90 78 3.0 5.0 0.00 0.00 0.00 47 1017.7
20190522190317 89 118 6.0 10.0 0.00 0.00 0.00 46 1017.7
20190522185817 89 83 3.0 4.0 0.00 0.00 0.00 49 1017.7
20190522185317 88 83 2.0 4.0 0.00 0.00 0.00 48 1017.7
20190522184817 89 74 5.0 8.0 0.00 0.00 0.00 51 1018.0
20190522184318 90 134 6.0 6.0 0.00 0.00 0.00 43 1018.0
20190522183917 89 30 2.0 2.0 0.00 0.00 0.00 47 1018.0
20190522183417 89 54 0.0 1.0 0.00 0.00 0.00 47 1018.0
20190522182917 89 86 2.0 3.0 0.00 0.00 0.00 47 1018.0
20190522182418 90 90 4.0 5.0 0.00 0.00 0.00 47 1018.0
20190522181718 90 8 2.0 2.0 0.00 0.00 0.00 44 1018.0
20190522181219 88 27 1.0 2.0 0.00 0.00 0.00 48 1018.0
20190522180718 88 99 1.0 1.0 0.00 0.00 0.00 48 1018.0
20190522180217 88 75 1.0 4.0 0.00 0.00 0.00 47 1018.0
20190522175718 88 118 3.0 4.0 0.00 0.00 0.00 47 1018.0
20190522175218 88 127 7.0 10.0 0.00 0.00 0.00 48 1018.4
20190522174717 87 83 2.0 3.0 0.00 0.00 0.00 48 1018.0
20190522174218 87 26 2.0 3.0 0.00 0.00 0.00 48 1018.4
20190522173717 89 26 1.0 3.0 0.00 0.00 0.00 52 1018.4
20190522173217 89 91 4.0 5.0 0.00 0.00 0.00 50 1018.4
20190522172718 88 74 1.0 2.0 0.00 0.00 0.00 49 1018.7
20190522172218 89 7 1.0 2.0 0.00 0.00 0.00 46 1018.4
20190522171718 88 31 1.0 2.0 0.00 0.00 0.00 48 1018.4
20190522171218 87 90 3.0 4.0 0.00 0.00 0.00 47 1018.4
20190522170717 88 49 0.0 1.0 0.00 0.00 0.00 52 1018.7
20190522170218 87 74 2.0 3.0 0.00 0.00 0.00 48 1018.4
20190522165718 87 134 3.0 4.0 0.00 0.00 0.00 49 1018.4
20190522165218 87 42 6.0 9.0 0.00 0.00 0.00 47 1018.4
20190522164718 87 49 1.0 2.0 0.00 0.00 0.00 52 1018.4
20190522164218 86 82 4.0 5.0 0.00 0.00 0.00 54 1018.7
20190522163718 87 248 5.0 5.0 0.00 0.00 0.00 49 1018.7
20190522163217 86 135 2.0 3.0 0.00 0.00 0.00 49 1018.4
20190522162718 86 49 1.0 1.0 0.00 0.00 0.00 50 1018.4
20190522162217 86 86 5.0 8.0 0.00 0.00 0.00 57 1018.7
20190522161718 86 41 2.0 3.0 0.00 0.00 0.00 52 1018.7
20190522161018 86 30 0.0 1.0 0.00 0.00 0.00 51 1018.7
20190522160518 86 263 0.0 1.0 0.00 0.00 0.00 51 1018.7
20190522160018 85 174 1.0 2.0 0.00 0.00 0.00 52 1018.7
20190522155517 86 33 1.0 2.0 0.00 0.00 0.00 54 1018.7
20190522155018 86 39 1.0 1.0 0.00 0.00 0.00 52 1018.7
20190522154517 85 67 0.0 1.0 0.00 0.00 0.00 56 1018.7
20190522154017 85 32 2.0 3.0 0.00 0.00 0.00 51 1018.7
20190522153518 86 31 2.0 3.0 0.00 0.00 0.00 52 1018.7
20190522153018 86 128 2.0 3.0 0.00 0.00 0.00 50 1018.7
20190522152517 85 73 2.0 2.0 0.00 0.00 0.00 51 1018.7
20190522152018 85 80 2.0 3.0 0.00 0.00 0.00 53 1018.7
20190522151517 86 173 1.0 1.0 0.00 0.00 0.00 49 1018.4
20190522151018 85 260 0.0 1.0 0.00 0.00 0.00 55 1018.7
20190522150517 84 0.0 0.0 0.00 0.00 0.00 56 1018.7
20190522150017 86 236 3.0 4.0 0.00 0.00 0.00 54 1018.7
20190522145517 84 258 1.0 2.0 0.00 0.00 0.00 54 1018.4
20190522145018 84 128 2.0 3.0 0.00 0.00 0.00 56 1018.4
20190522144517 84 78 0.0 1.0 0.00 0.00 0.00 56 1018.7
20190522144018 83 89 1.0 1.0 0.00 0.00 0.00 59 1018.7
20190522143518 83 231 2.0 3.0 0.00 0.00 0.00 59 1018.7
20190522143017 83 229 1.0 1.0 0.00 0.00 0.00 60 1018.7
20190522142517 83 210 1.0 2.0 0.00 0.00 0.00 60 1018.7
20190522142017 83 0.0 0.0 0.00 0.00 0.00 60 1018.4
20190522141518 83 283 2.0 3.0 0.00 0.00 0.00 60 1018.7
20190522141017 82 248 0.0 1.0 0.00 0.00 0.00 63 1018.7
20190522140617 82 253 1.0 2.0 0.00 0.00 0.00 62 1018.4
20190522140115 82 344 3.0 4.0 0.00 0.00 0.00 65 1018.7
20190522135617 81 259 0.0 1.0 0.00 0.00 0.00 67 1018.4
20190522135117 81 230 4.0 5.0 0.00 0.00 0.00 68 1018.4
20190522134618 81 252 3.0 4.0 0.00 0.00 0.00 67 1018.4
20190522134117 81 236 6.0 8.0 0.00 0.00 0.00 69 1018.0
20190522133618 80 232 2.0 3.0 0.00 0.00 0.00 71 1018.0
20190522133117 80 148 3.0 4.0 0.00 0.00 0.00 72 1018.7
20190522132618 79 133 4.0 4.0 0.00 0.00 0.00 72 1018.4
20190522132119 79 128 3.0 4.0 0.00 0.00 0.00 73 1018.4
20190522131617 79 195 2.0 3.0 0.00 0.00 0.00 75 1018.0
20190522131118 79 119 3.0 4.0 0.00 0.00 0.00 75 1018.4
20190522130617 79 147 2.0 3.0 0.00 0.00 0.00 76 1018.4
20190522130118 79 234 3.0 4.0 0.00 0.00 0.00 75 1018.4
20190522125620 78 160 2.0 3.0 0.00 0.00 0.00 77 1018.0
20190522125118 78 92 2.0 4.0 0.00 0.00 0.00 77 1018.4
20190522124617 77 104 1.0 2.0 0.00 0.00 0.00 79 1018.0
20190522124118 77 120 3.0 4.0 0.00 0.00 0.00 79 1018.0
20190522123618 77 280 2.0 3.0 0.00 0.00 0.00 79 1017.7
20190522123118 77 200 3.0 4.0 0.00 0.00 0.00 80 1017.7
20190522122618 77 120 2.0 2.0 0.00 0.00 0.00 80 1017.7
20190522122119 76 112 3.0 3.0 0.00 0.00 0.00 80 1017.7
20190522121618 76 104 1.0 2.0 0.00 0.00 0.00 81 1017.7
20190522121117 76 135 3.0 4.0 0.00 0.00 0.00 81 1017.7
20190522120618 76 103 2.0 2.0 0.00 0.00 0.00 82 1017.7
20190522120118 75 95 2.0 2.0 0.00 0.00 0.00 82 1017.7
20190522115618 75 257 2.0 2.0 0.00 0.00 0.00 83 1017.7
20190522115117 75 146 2.0 3.0 0.00 0.00 0.00 83 1017.7
20190522114618 75 118 2.0 2.0 0.00 0.00 0.00 83 1017.7
20190522114117 74 126 3.0 3.0 0.00 0.00 0.00 84 1017.7
20190522113417 74 111 2.0 2.0 0.00 0.00 0.00 84 1017.7
20190522112918 74 95 2.0 2.0 0.00 0.00 0.00 85 1017.7
20190522112417 73 245 2.0 2.0 0.00 0.00 0.00 85 1017.7
20190522111917 73 134 2.0 3.0 0.00 0.00 0.00 86 1017.4
20190522111418 73 11 2.0 2.0 0.00 0.00 0.00 86 1017.4
20190522110918 73 110 2.0 3.0 0.00 0.00 0.00 87 1017.4
20190522110418 72 254 3.0 4.0 0.00 0.00 0.00 88 1017.0
20190522105917 72 112 2.0 2.0 0.00 0.00 0.00 88 1017.4
20190522105418 72 124 2.0 2.0 0.00 0.00 0.00 89 1017.0
20190522104918 72 111 2.0 3.0 0.00 0.00 0.00 89 1017.0
20190522104417 72 118 3.0 3.0 0.00 0.00 0.00 89 1017.4
20190522103917 72 115 2.0 2.0 0.00 0.00 0.00 89 1017.0
20190522103417 72 130 2.0 3.0 0.00 0.00 0.00 89 1017.0
20190522102918 72 109 2.0 3.0 0.00 0.00 0.00 89 1017.0
20190522102417 72 113 2.0 3.0 0.00 0.00 0.00 89 1017.0
20190522101918 72 143 2.0 4.0 0.00 0.00 0.00 89 1016.7
20190522101418 72 89 1.0 2.0 0.00 0.00 0.00 89 1016.7
20190522100917 72 86 2.0 2.0 0.00 0.00 0.00 89 1016.7
20190522100417 72 84 0.0 1.0 0.00 0.00 0.00 89 1016.7
20190522095917 72 84 1.0 2.0 0.00 0.00 0.00 89 1016.7
20190522095417 72 85 0.0 1.0 0.00 0.00 0.00 89 1016.7
20190522094917 72 83 1.0 1.0 0.00 0.00 0.00 89 1016.7
20190522094418 72 83 1.0 2.0 0.00 0.00 0.00 89 1016.7
20190522093918 72 117 1.0 2.0 0.00 0.00 0.00 89 1016.3
20190522093417 72 112 2.0 2.0 0.00 0.00 0.00 89 1016.3
20190522093018 72 103 1.0 2.0 0.00 0.00 0.00 89 1016.3
20190522092517 72 96 2.0 3.0 0.00 0.00 0.00 89 1016.3
20190522092018 72 112 2.0 2.0 0.00 0.00 0.00 89 1016.3
20190522091517 72 117 2.0 2.0 0.00 0.00 0.00 89 1016.7
20190522091017 72 133 2.0 3.0 0.00 0.00 0.00 88 1016.7
20190522090517 72 106 1.0 2.0 0.00 0.00 0.00 88 1016.7
20190522090017 72 114 1.0 2.0 0.00 0.00 0.00 88 1016.3
20190522085518 72 119 2.0 2.0 0.00 0.00 0.00 88 1016.3
20190522085018 73 120 2.0 2.0 0.00 0.00 0.00 88 1016.3
20190522084518 73 124 2.0 2.0 0.00 0.00 0.00 87 1016.0
20190522084018 73 90 0.0 1.0 0.00 0.00 0.00 87 1016.0
20190522083518 73 111 2.0 2.0 0.00 0.00 0.00 87 1016.3
20190522083018 73 151 3.0 4.0 0.00 0.00 0.00 87 1016.0
20190522082518 73 119 3.0 4.0 0.00 0.00 0.00 87 1016.0
20190522082017 73 138 3.0 3.0 0.00 0.00 0.00 87 1016.0
20190522081518 73 106 1.0 2.0 0.00 0.00 0.00 87 1016.0
20190522081017 73 121 3.0 4.0 0.00 0.00 0.00 86 1016.3
20190522080517 73 109 4.0 5.0 0.00 0.00 0.00 86 1016.3
20190522080017 73 124 2.0 3.0 0.00 0.00 0.00 86 1016.3
20190522075517 73 104 3.0 4.0 0.00 0.00 0.00 86 1016.3
20190522075018 73 145 3.0 3.0 0.00 0.00 0.00 86 1016.3
20190522074518 73 135 3.0 4.0 0.00 0.00 0.00 86 1016.0
20190522074017 74 127 2.0 3.0 0.00 0.00 0.00 86 1016.3
20190522073518 74 134 2.0 4.0 0.00 0.00 0.00 85 1016.3
20190522073018 74 137 3.0 3.0 0.00 0.00 0.00 85 1016.3
20190522072518 74 113 2.0 3.0 0.00 0.00 0.00 84 1016.7
20190522072217 74 120 4.0 5.0 0.00 0.00 0.00 84 1016.3
20190522071718 74 111 2.0 3.0 0.00 0.00 0.00 84 1016.0
20190522071218 74 141 2.0 4.0 0.00 0.00 0.00 83 1016.3
20190522070717 75 133 5.0 5.0 0.00 0.00 0.00 83 1016.3
20190522070217 75 112 2.0 3.0 0.00 0.00 0.00 83 1016.3
20190522065718 75 139 4.0 5.0 0.00 0.00 0.00 82 1016.0
20190522065217 75 113 5.0 6.0 0.00 0.00 0.00 81 1016.3
20190522064717 75 123 6.0 6.0 0.00 0.00 0.00 81 1016.0
20190522064217 75 151 6.0 6.0 0.00 0.00 0.00 81 1016.3
20190522063717 75 133 6.0 8.0 0.00 0.00 0.00 81 1016.3
20190522063217 75 107 5.0 5.0 0.00 0.00 0.00 82 1016.4
20190522062717 75 142 2.0 3.0 0.00 0.00 0.00 82 1016.4
20190522062218 75 113 4.0 5.0 0.00 0.00 0.00 82 1016.4
20190522061717 75 116 5.0 6.0 0.00 0.00 0.00 82 1016.4
20190522061218 75 148 6.0 6.0 0.00 0.00 0.00 82 1016.4
20190522060718 75 142 5.0 6.0 0.00 0.00 0.00 82 1016.4
20190522060217 75 146 4.0 5.0 0.00 0.00 0.00 82 1016.4
20190522055718 76 154 6.0 8.0 0.00 0.00 0.00 82 1016.4
20190522055217 76 128 7.0 9.0 0.00 0.00 0.00 81 1016.7
20190522054718 76 130 4.0 5.0 0.00 0.00 0.00 81 1016.7
20190522054218 76 161 5.0 6.0 0.00 0.00 0.00 80 1016.7
20190522053718 76 131 5.0 5.0 0.00 0.00 0.00 80 1016.7
20190522053217 77 150 5.0 6.0 0.00 0.00 0.00 79 1016.7
20190522052717 77 109 5.0 8.0 0.00 0.00 0.00 79 1016.7
20190522052218 77 136 4.0 5.0 0.00 0.00 0.00 79 1016.7
20190522051718 77 141 7.0 9.0 0.00 0.00 0.00 77 1016.4
20190522051018 77 111 6.0 8.0 0.00 0.00 0.00 77 1016.4
20190522050517 78 121 6.0 6.0 0.00 0.00 0.00 77 1016.4
20190522050018 78 104 5.0 6.0 0.00 0.00 0.00 76 1016.4
20190522045517 78 123 3.0 4.0 0.00 0.00 0.00 76 1016.7
20190522045017 78 116 3.0 4.0 0.00 0.00 0.00 76 1016.4
20190522044518 78 113 4.0 5.0 0.00 0.00 0.00 76 1016.4
20190522044018 78 105 3.0 3.0 0.00 0.00 0.00 76 1016.4
20190522043517 78 104 4.0 4.0 0.00 0.00 0.00 76 1016.4
20190522043017 78 103 3.0 4.0 0.00 0.00 0.00 76 1016.4
20190522042518 78 95 2.0 3.0 0.00 0.00 0.00 77 1016.4
20190522042018 78 100 2.0 3.0 0.00 0.00 0.00 78 1016.7
20190522041517 78 96 2.0 3.0 0.00 0.00 0.00 78 1016.4
20190522041018 78 103 3.0 4.0 0.00 0.00 0.00 78 1016.4
20190522040517 78 107 2.0 3.0 0.00 0.00 0.00 80 1016.0
20190522035918 77 104 2.0 4.0 0.00 0.00 0.00 81 1016.4
20190522035417 77 120 2.0 3.0 0.00 0.00 0.00 81 1016.0
20190522034918 78 121 1.0 2.0 0.00 0.00 0.00 80 1016.4
20190522034517 78 125 2.0 3.0 0.00 0.00 0.00 80 1016.4
20190522034018 78 111 2.0 2.0 0.00 0.00 0.00 79 1016.4
20190522033518 79 92 1.0 2.0 0.00 0.00 0.00 79 1016.4
20190522033018 78 104 4.0 4.0 0.00 0.00 0.00 78 1016.4
20190522032517 78 107 3.0 4.0 0.00 0.00 0.00 79 1016.4
20190522032017 78 112 4.0 4.0 0.00 0.00 0.00 80 1016.0
20190522031517 78 103 5.0 6.0 0.00 0.00 0.00 80 1016.0
20190522031018 79 91 5.0 6.0 0.00 0.00 0.00 80 1016.0
20190522030517 79 295 1.0 1.0 0.00 0.00 0.00 81 1015.7
20190522030018 79 0.0 0.0 0.00 0.00 0.00 81 1015.3
20190522025518 79 0.0 0.0 0.00 0.00 0.00 82 1015.7
20190522025017 79 295 0.0 1.0 0.00 0.00 0.00 82 1015.3
20190522024517 79 0.0 0.0 0.00 0.00 0.00 81 1015.3
20190522024018 79 0.0 0.0 0.00 0.00 0.00 79 1015.3
20190522023518 79 0.0 0.0 0.00 0.00 0.00 79 1015.3
20190522023018 79 0.0 0.0 0.00 0.00 0.00 78 1015.0
20190522022517 79 0.0 0.0 0.00 0.00 0.00 79 1015.3
20190522022017 79 0.0 0.0 0.00 0.00 0.00 79 1015.0
20190522021517 79 295 0.0 1.0 0.00 0.00 0.00 79 1015.0
20190522021017 79 296 0.0 1.0 0.00 0.00 0.00 79 1015.0
20190522020517 80 296 1.0 1.0 0.00 0.00 0.00 77 1015.0
20190522020018 79 0.0 0.0 0.00 0.00 0.00 77 1015.0
20190522015517 80 0.0 0.0 0.00 0.00 0.00 77 1015.0
20190522015017 80 0.0 0.0 0.00 0.00 0.00 77 1014.7
20190522014518 80 0.0 0.0 0.00 0.00 0.00 76 1014.7
20190522014018 80 0.0 0.0 0.00 0.00 0.00 76 1014.7
20190522013318 80 0.0 0.0 0.00 0.00 0.00 75 1014.7
20190522012819 80 0.0 0.0 0.00 0.00 0.00 75 1014.7
20190522012318 80 0.0 0.0 0.00 0.00 0.00 76 1014.7
20190522011818 80 0.0 0.0 0.00 0.00 0.00 75 1014.7
20190522011318 81 0.0 0.0 0.00 0.00 0.00 75 1014.7
20190522010817 80 0.0 0.0 0.00 0.00 0.00 73 1014.6
20190522010318 81 294 0.0 1.0 0.00 0.00 0.00 73 1014.3
20190522005817 81 294 0.0 1.0 0.00 0.00 0.00 72 1014.3
20190522005318 81 293 1.0 2.0 0.00 0.00 0.00 72 1014.3
20190522004817 81 296 1.0 2.0 0.00 0.00 0.00 72 1014.3
20190522004317 81 0.0 0.0 0.00 0.00 0.00 73 1014.0
20190522003818 81 345 2.0 2.0 0.00 0.00 0.00 72 1014.0
20190522003318 81 12 1.0 1.0 0.00 0.00 0.00 72 1014.0
20190522002817 81 45 0.0 1.0 0.00 0.00 0.00 72 1014.0
20190522002118 82 9 2.0 2.0 0.00 0.00 0.00 70 1014.0
20190522001617 82 340 2.0 2.0 0.00 0.00 0.00 69 1014.0
20190522001118 82 359 2.0 2.0 0.00 0.00 0.00 68 1014.0
20190522000618 82 315 2.0 2.0 0.00 0.00 0.00 68 1013.6
20190522000117 83 340 3.0 4.0 0.00 0.00 0.00 67 1014.0
20190521235617 83 326 2.0 3.0 0.00 0.00 0.00 66 1014.0
20190521235117 84 316 2.0 3.0 0.00 0.00 0.00 66 1014.0
20190521234618 84 339 3.0 4.0 0.00 0.00 0.00 66 1013.6
20190521234117 84 191 2.0 4.0 0.00 0.00 0.00 66 1013.6
20190521233618 84 170 2.0 3.0 0.00 0.00 0.00 65 1013.6
20190521233118 84 165 2.0 3.0 0.00 0.00 0.00 65 1013.6
20190521232617 84 235 3.0 3.0 0.00 0.00 0.00 65 1013.3
20190521232117 84 219 5.0 6.0 0.00 0.00 0.00 65 1013.6
20190521231617 84 142 4.0 5.0 0.00 0.00 0.00 64 1013.6
20190521231117 85 230 4.0 4.0 0.00 0.00 0.00 62 1013.6
20190521230618 85 243 4.0 5.0 0.00 0.00 0.00 61 1013.3
20190521230118 85 191 4.0 5.0 0.00 0.00 0.00 60 1014.0
20190521225618 85 267 3.0 4.0 0.00 0.00 0.00 60 1013.3
20190521225118 85 179 4.0 5.0 0.00 0.00 0.00 61 1013.3
20190521224617 85 343 4.0 4.0 0.00 0.00 0.00 64 1013.6
20190521224118 86 342 4.0 6.0 0.00 0.00 0.00 63 1013.6